[[[{"header":{"parameterUnit":"kt","parameterCategory":2,"dx":1,"dy":1,"la1":30.253999710083008,"la2":30.299108505249023,"lo1":-89.0895004272461,"lo2":-89.04439544677734,"nx":28,"ny":28,"refTime":"2022-09-18T21:00:00:Z","depth":0,"parameterNumber":1,"parameterNumberName":"U-component_of_WINDS"},"data":[1.127,1.1272,1.1336,1.1366,1.1428,1.1459,1.1489,1.1535,1.1587,1.163,1.1665,1.1726,1.18,1.1855,1.1895,1.192,1.193,1.1887,1.1924,1.2065,1.2088,1.211,1.2113,1.189,1.189,1.1766,1.1765,1.1764,1.1373,1.1435,1.147,1.1546,1.1576,1.1657,1.1723,1.1741,1.1765,1.1829,1.1867,1.1908,1.1947,1.2037,1.2084,1.2084,1.2122,1.2092,1.209,1.2099,1.2255,1.2257,1.2061,1.2061,1.2061,1.2061,1.2062,1.2062,1.1576,1.1575,1.1658,1.1696,1.1751,1.1801,1.1809,1.1886,1.1918,1.1976,1.2044,1.207,1.2144,1.2229,1.2272,1.2294,1.2337,1.2321,1.2317,1.231,1.2293,1.2459,1.2306,1.2306,1.2307,1.2308,1.2308,0,1.1743,1.1796,1.1833,1.1889,1.192,1.1968,1.2022,1.2029,1.2157,1.2178,1.2214,1.2243,1.2302,1.234,1.2397,1.2445,1.2523,1.254,1.2529,1.2492,1.2455,1.2471,1.2717,1.2541,1.2543,1.2545,1.2546,1.2547,1.1948,1.1939,1.2055,1.2072,1.2117,1.2143,1.2171,1.2285,1.2308,1.239,1.2381,1.2423,1.246,1.2504,1.2587,1.2629,1.2666,1.2592,1.2672,1.2642,1.2659,1.2656,1.2655,1.2571,1.2568,1.2565,1.2563,0,1.2056,1.2158,1.2164,1.2278,1.2307,1.2291,1.2387,1.2389,1.2462,1.2473,1.2483,1.2593,1.2624,1.2721,1.2774,1.2823,1.2794,1.2833,1.2771,1.2781,1.2721,1.2723,1.2519,1.2497,1.2735,1.2733,1.2731,0,1.2267,1.2251,1.2403,1.24,1.2387,1.2501,1.2483,1.2543,1.2608,1.2619,1.2727,1.2734,1.2857,1.2877,1.2949,1.2944,1.2955,1.2989,1.3007,1.2976,1.2971,1.2983,1.2991,1.3054,1.3055,1.3056,1.3057,0,1.2421,1.2484,1.2483,1.2512,1.2629,1.2625,1.2673,1.2747,1.2771,1.2818,1.2835,1.2881,1.2905,1.2939,1.3029,1.3079,1.3026,1.3114,1.3061,1.3058,1.3037,1.3036,1.2838,1.3058,1.3058,1.3059,1.3059,0,1.2604,1.2653,1.2636,1.2737,1.2747,1.2745,1.2799,1.2821,1.2889,1.2935,1.2973,1.3053,1.3059,1.3139,1.3147,1.3187,1.3204,1.3239,1.3237,1.3237,1.3321,1.319,1.2996,1.2977,1.3246,1.3248,1.3249,0,1.2751,1.2761,1.2859,1.2839,1.2856,1.2977,1.2977,1.3034,1.3095,1.3117,1.3185,1.3207,1.3288,1.3307,1.33,1.3367,1.3316,1.3378,1.3401,1.34,1.3374,1.32,1.3143,1.303,1.3271,1.3268,1.3267,0,1.2876,1.302,1.3009,1.3047,1.3142,1.3156,1.3157,1.3206,1.3214,1.3267,1.3268,1.3304,1.3365,1.3395,1.3464,1.3451,1.3354,1.3517,1.352,1.348,1.329,1.3237,1.3218,1.3404,1.3401,1.3399,1.3284,0,1.3122,1.314,1.3118,1.3195,1.3222,1.3215,1.3318,1.3333,1.3398,1.3461,1.3465,1.3534,1.3579,1.3584,1.3645,1.3585,1.3609,1.3672,1.3751,1.3637,1.3601,1.3587,1.3797,1.38,1.3802,1.3805,0,0,1.3234,1.3261,1.3366,1.3371,1.3399,1.3521,1.3504,1.3546,1.3624,1.364,1.3687,1.3744,1.3796,1.3788,1.3761,1.378,1.3777,1.3812,1.3692,1.3679,1.3667,1.3627,1.361,1.3809,1.381,1.3811,1.3811,0,1.3344,1.3402,1.3385,1.3434,1.3509,1.3578,1.3574,1.3668,1.3707,1.3712,1.3807,1.3821,1.3863,1.3905,1.3932,1.3818,1.3886,1.3825,1.3729,1.3713,1.3697,1.3683,1.3639,1.3623,1.3817,1.3817,1.3817,0,1.3481,1.3553,1.3556,1.3629,1.3678,1.3691,1.3802,1.3811,1.3821,1.3947,1.3948,1.3999,1.4064,1.4045,1.404,1.4081,1.3979,1.4029,1.4016,1.4015,1.4004,1.3985,1.3967,1.4196,1.4197,1.4198,0,0,1.3561,1.3578,1.3687,1.3659,1.3684,1.3785,1.3801,1.3867,1.3925,1.3947,1.4012,1.4063,1.4089,1.4103,1.4131,1.4097,1.4116,1.4072,1.4054,1.4039,1.403,1.4014,1.3995,1.4202,1.4202,1.4202,0,0,1.3597,1.3724,1.378,1.3761,1.3814,1.3916,1.3894,1.3963,1.4,1.4011,1.4118,1.4136,1.4121,1.4165,1.42,1.416,1.4237,1.4231,1.413,1.4109,1.4092,1.4078,1.4317,0,0,0,0,0,1.376,1.371,1.3759,1.3771,1.3859,1.389,1.3902,1.3991,1.4045,1.4025,1.4091,1.4164,1.4207,1.4241,1.4249,1.4206,1.4246,1.4238,1.4231,1.4094,1.4071,1.4051,0,0,0,0,0,0,1.3766,1.378,1.3761,1.3859,1.388,1.3893,1.4002,1.4026,1.4049,1.4063,1.4149,1.4167,1.4241,1.4242,1.4248,1.4206,1.4316,1.4243,1.4237,1.423,1.4086,1.4067,1.4051,0,0,0,0,0,1.377,1.3782,1.39,1.3861,1.3879,1.3986,1.4005,1.4025,1.4044,1.4145,1.4165,1.411,1.4238,1.4249,1.4246,1.4201,1.4312,1.4314,1.4239,1.4234,1.4229,1.4077,0,0,0,0,0,0,1.3774,1.38,1.3906,1.3915,1.3886,1.3987,1.4006,1.4024,1.4127,1.4146,1.4111,1.4121,1.4234,1.4244,1.4252,1.4194,1.4309,1.4311,1.4312,1.4235,1.4231,1.4227,0,0,0,0,0,0,1.3794,1.3806,1.3911,1.3938,1.3951,1.3987,1.4004,1.4014,1.4126,1.4087,1.4099,1.4114,1.4221,1.424,1.4247,1.4259,1.4306,1.4308,1.431,1.4311,1.4231,1.4228,0,0,0,0,0,0,1.3801,1.3811,1.3936,1.3946,1.3957,1.4062,1.3998,1.4082,1.4153,1.4081,1.4161,1.4165,1.4215,1.4224,1.4242,1.4251,1.4257,1.4307,1.4308,1.4309,1.4309,0,0,0,0,0,0,0,1.3806,1.3716,1.3855,1.3952,1.3963,1.3995,1.3998,1.4,1.4153,1.4157,1.416,1.4164,1.4295,1.4297,1.43,1.4245,0,0,1.4306,1.4307,0,0,0,0,0,0,0,0,1.3713,1.3715,1.3855,1.3857,1.3859,1.3996,1.3998,1.4,1.4154,1.4157,1.416,1.4162,1.4296,1.4298,1.4299,0,0,0,0,0,0,0,0,0,0,0,0,0,0,0,1.3855,1.3857,0,1.3996,1.3998,1.3999,1.4154,1.4157,1.4159,1.4161,1.4296,1.4298,1.4299,0,0,0,0,0,0,0,0,0,0,0,0,0,0,0,0,0,0,0,0,0,0,0,0,0,0,0,0,0,0,0,0,0,0,0,0,0,0,0,0,0,0,0,0,0,0,0,0,0,0,0,0,0,0,0,0,0,0,0,0,0,0,0,0,0,0,0,0,0]}],[{"header":{"parameterUnit":"kt","parameterCategory":2,"dx":1,"dy":1,"la1":30.253999710083008,"la2":30.299108505249023,"lo1":-89.0895004272461,"lo2":-89.04439544677734,"nx":28,"ny":28,"refTime":"2022-09-18T21:00:00:Z","depth":0,"parameterNumber":2,"parameterNumberName":"V-component_of_WINDS"},"data":[1.521,1.5113,1.5106,1.4989,1.4961,1.4878,1.4844,1.4798,1.4757,1.4651,1.4586,1.456,1.4508,1.4422,1.4345,1.4333,1.43,1.4278,1.4266,1.4387,1.4403,1.4417,1.4442,1.4272,1.4272,1.4143,1.4142,1.4141,1.5313,1.5287,1.5222,1.5152,1.5096,1.5116,1.5058,1.5008,1.4929,1.4876,1.481,1.4711,1.4628,1.4579,1.4495,1.4442,1.4441,1.442,1.4422,1.4412,1.4542,1.457,1.4424,1.4424,1.4424,1.4424,1.4424,1.4424,1.5496,1.5438,1.5391,1.5319,1.528,1.5231,1.517,1.5142,1.5072,1.4987,1.4981,1.4887,1.4825,1.471,1.4665,1.4588,1.4606,1.4574,1.4566,1.4558,1.4554,1.4747,1.4571,1.4572,1.4572,1.4572,1.4572,0,1.5627,1.5624,1.5559,1.5492,1.5438,1.5381,1.5326,1.5287,1.5263,1.5204,1.5117,1.5063,1.4953,1.4863,1.4776,1.4733,1.4734,1.4731,1.4709,1.4712,1.4729,1.4719,1.4932,1.4734,1.4735,1.4736,1.4736,1.4737,1.5811,1.5741,1.5683,1.5638,1.5605,1.553,1.5482,1.5467,1.5414,1.5338,1.5281,1.5194,1.5121,1.4974,1.4926,1.4839,1.4836,1.4764,1.4822,1.4832,1.4834,1.4838,1.4831,1.4751,1.4749,1.4748,1.4746,0,1.5916,1.5897,1.5782,1.5727,1.5711,1.5636,1.5585,1.552,1.5494,1.5399,1.5375,1.533,1.5238,1.5202,1.5085,1.5068,1.4938,1.4938,1.4963,1.4961,1.4892,1.4898,1.4672,1.4642,1.4819,1.4818,1.4816,0,1.6063,1.5968,1.5945,1.5878,1.5774,1.576,1.5655,1.5621,1.5567,1.5492,1.5492,1.5419,1.5383,1.5304,1.5277,1.5164,1.5141,1.5119,1.5113,1.5118,1.5121,1.5081,1.5089,1.51,1.5101,1.5102,1.5103,0,1.6227,1.61,1.5995,1.5961,1.5886,1.5835,1.58,1.5737,1.5685,1.5612,1.5578,1.549,1.5441,1.5372,1.5339,1.538,1.5198,1.5247,1.5176,1.5176,1.5132,1.5134,1.4949,1.5105,1.5105,1.5105,1.5106,0,1.6339,1.6275,1.6122,1.6061,1.6027,1.5953,1.5872,1.58,1.5731,1.5713,1.5652,1.5644,1.5541,1.5594,1.545,1.5515,1.5465,1.5435,1.5429,1.5413,1.5472,1.5371,1.52,1.518,1.5407,1.5409,1.5411,0,1.6534,1.6373,1.636,1.6212,1.6132,1.6142,1.6058,1.5997,1.5965,1.5888,1.5848,1.5756,1.5787,1.5752,1.5687,1.5639,1.5556,1.5649,1.5528,1.5524,1.5549,1.5393,1.5376,1.5243,1.5443,1.5439,1.5437,0,1.668,1.6592,1.6565,1.6527,1.6447,1.6376,1.628,1.6189,1.614,1.6067,1.5983,1.5851,1.587,1.5809,1.5789,1.5722,1.5611,1.5748,1.5745,1.5724,1.5454,1.544,1.5418,1.5612,1.5608,1.5605,1.5462,0,1.6857,1.6771,1.67,1.6609,1.655,1.6452,1.6418,1.6359,1.6352,1.6317,1.619,1.612,1.6015,1.5978,1.5964,1.5824,1.584,1.5857,1.5899,1.5798,1.5749,1.5729,1.5977,1.5978,1.5979,1.5979,0,0,1.7046,1.6922,1.6905,1.6813,1.6761,1.6767,1.6666,1.6614,1.6506,1.6468,1.6495,1.6295,1.6233,1.608,1.6046,1.6002,1.5972,1.6006,1.5847,1.5832,1.5819,1.5768,1.5748,1.5981,1.5981,1.5981,1.5982,0,1.7104,1.7056,1.6959,1.6907,1.683,1.6799,1.6776,1.6695,1.6667,1.6542,1.654,1.6457,1.6292,1.623,1.6176,1.6027,1.6024,1.5997,1.5933,1.5857,1.5841,1.5827,1.5774,1.5756,1.5984,1.5983,1.5983,0,1.7241,1.7188,1.7136,1.702,1.6966,1.6879,1.6921,1.6824,1.6758,1.6754,1.6628,1.6581,1.6489,1.635,1.6284,1.6303,1.6074,1.6135,1.6129,1.6118,1.6042,1.6023,1.6006,1.6225,1.6226,1.6227,0,0,1.7293,1.7212,1.7143,1.7029,1.6997,1.6947,1.6894,1.6879,1.6803,1.6772,1.671,1.6631,1.6536,1.6473,1.638,1.6231,1.6208,1.6168,1.6156,1.6147,1.6132,1.6053,1.6034,1.6231,1.6231,1.6232,0,0,1.7315,1.7234,1.7241,1.7104,1.7038,1.6954,1.6883,1.6886,1.68,1.6805,1.6765,1.6741,1.6608,1.6558,1.6619,1.6393,1.6437,1.6421,1.643,1.6415,1.6403,1.6416,1.6641,0,0,0,0,0,1.7353,1.7246,1.7253,1.7225,1.707,1.6953,1.6932,1.6902,1.6938,1.6883,1.6832,1.6832,1.6584,1.6637,1.6605,1.6535,1.6283,1.6274,1.6265,1.6241,1.6226,1.6213,0,0,0,0,0,0,1.7342,1.7308,1.7256,1.717,1.7135,1.6957,1.701,1.6999,1.6943,1.6946,1.6843,1.6829,1.6795,1.6651,1.6622,1.6557,1.6651,1.628,1.6272,1.6265,1.6236,1.6224,1.6213,0,0,0,0,0,1.7333,1.7305,1.7066,1.7171,1.714,1.7076,1.7014,1.7005,1.696,1.6878,1.6865,1.6943,1.6794,1.6767,1.6634,1.6571,1.667,1.666,1.6275,1.6268,1.6263,1.623,0,0,0,0,0,0,1.7326,1.7293,1.7059,1.7049,1.7209,1.7085,1.7065,1.701,1.6895,1.6881,1.6976,1.698,1.6792,1.6771,1.6751,1.6578,1.6686,1.6675,1.6669,1.627,1.6265,1.6261,0,0,0,0,0,0,1.7308,1.7284,1.7054,1.7104,1.7099,1.7094,1.7076,1.6954,1.6893,1.6998,1.6999,1.6979,1.6819,1.6774,1.6758,1.6569,1.6698,1.6688,1.6681,1.6676,1.6266,1.6262,0,0,0,0,0,0,1.7297,1.7276,1.7107,1.7102,1.7098,1.6975,1.6984,1.6824,1.6946,1.7003,1.6955,1.6959,1.6821,1.6804,1.6763,1.6581,1.6572,1.6698,1.6691,1.6686,1.6683,0,0,0,0,0,0,0,1.7288,1.7434,1.7124,1.7101,1.7097,1.695,1.6947,1.6944,1.6947,1.6951,1.6954,1.6958,1.6757,1.6746,1.6734,1.659,0,0,1.6699,1.6694,0,0,0,0,0,0,0,0,1.7442,1.7436,1.7124,1.7122,1.7119,1.695,1.6947,1.6945,1.6948,1.6951,1.6954,1.6956,1.6754,1.6745,1.6735,0,0,0,0,0,0,0,0,0,0,0,0,0,0,0,1.7123,1.7122,0,1.6949,1.6947,1.6945,1.6948,1.6951,1.6953,1.6955,1.6751,1.6744,1.6736,0,0,0,0,0,0,0,0,0,0,0,0,0,0,0,0,0,0,0,0,0,0,0,0,0,0,0,0,0,0,0,0,0,0,0,0,0,0,0,0,0,0,0,0,0,0,0,0,0,0,0,0,0,0,0,0,0,0,0,0,0,0,0,0,0,0,0,0,0]}]]]